GAOFEN-9 01

Last updated on Thu Jul 03 2025 00:02:30 GMT+0000 (Coordinated Universal Time)

1 40894U 15047A 25183.62234417 .00000746 00000+0 10011-3 0 9992 2 40894 97.6759 229.4251 0027279 203.0329 156.9663 14.81904852528408
UTC large
Height (km)
Speed (km/s)
/
Latitude / Longitude
Inclination (degrees)
Orbital Period (minutes)
Azimuth
Elevation
Range (km)
Doppler Factor

Next 0 passes for location: London (51.5072 / 0.1276)

Sorry there are no passes over London.